Flag for U.S.A. Weather past 2 weeks in Tacoma, Washington, U.S.A.

Now
83 °F

Sunny.


Feels Like: 82 °F
Forecast: 57 / 84 °F
Wind: 6 mph from Northeast

Location: Tacoma Narrows Airport

Current Time: Jul 31, 2014 at 5:18:00 PM

Latest Report: Jul 31, 2014 at 4:53 PM


Visibility: 10 mi

Pressure: 30.03 "Hg

Humidity: 34%

Dew point: 52 °F

Location of TacomaLocation

Historic Weather in Tacoma — Graph

°F

Tacoma temperature yesterday

Maximum temperature yesterday: 83 °F (at 3:53 PM)
Minimum temperature yesterday: 58 °F (at 4:53 AM)
Average temperature yesterday: 68 °F

Past Weeks' High & Low Weather Summary

 TemperatureHumidityPressure
High88 °F (Jul 16, 4:53 PM)100% (Jul 23, 7:53 AM)30.21 "Hg (Jul 23, 7:53 AM)
Low53 °F (Jul 18, 5:53 AM)32% (Jul 16, 3:53 PM)29.91 "Hg (Jul 16, 6:53 PM)
Average65 °F65%30.07 "Hg
* Reported Jul 16 3:53 PM — Jul 31 3:53 PM, Tacoma, Weather by CustomWeather, © 2014

Note: Actual official high and low records may vary slightly from our data, if they occured in-between our weather recording intervals... More about our weather records

Advertising

Tacoma weather history for previous 24 hours

 ConditionsComfort  
Time TempWeatherWind HumidityBarometerVisibility
3:53 PM
Jul 31
83 °FSunny.8 mph34%30.04 "Hg10 mi
2:53 PM82 °FSunny.8 mph35%30.06 "Hg10 mi
1:53 PM81 °FSunny.10 mph34%30.06 "Hg10 mi
12:53 PM78 °FSunny.9 mph39%30.07 "Hg10 mi
11:53 AM76 °FSunny.7 mph42%30.08 "Hg10 mi
10:53 AM74 °FSunny.7 mph41%30.10 "Hg10 mi
9:53 AM71 °FSunny.6 mph44%30.10 "Hg10 mi
8:53 AM68 °FSunny.5 mph49%30.10 "Hg10 mi
7:53 AM64 °FSunny.No wind54%30.11 "Hg10 mi
6:53 AM62 °FSunny.5 mph56%30.10 "Hg10 mi
5:53 AM60 °FClear.No wind58%30.10 "Hg10 mi
4:53 AM61 °FClear.No wind58%30.10 "Hg10 mi
3:53 AM61 °FClear.No wind60%30.11 "Hg10 mi
2:53 AM65 °FClear.5 mph49%30.10 "Hg10 mi
1:53 AM66 °FClear.6 mph49%30.09 "Hg10 mi
12:53 AM67 °FClear.6 mph49%30.09 "Hg10 mi
11:53 PM
Jul 30
66 °FClear.8 mph54%30.09 "Hg10 mi
10:53 PM66 °FClear.6 mph54%30.08 "Hg10 mi
9:53 PM70 °FClear.5 mph47%30.08 "Hg10 mi
8:53 PM73 °FSunny.8 mph43%30.07 "Hg10 mi
7:53 PM75 °FSunny.8 mph39%30.07 "Hg10 mi
6:53 PM77 °FSunny.9 mph36%30.07 "Hg10 mi
5:53 PM80 °FSunny.7 mph38%30.08 "Hg10 mi
Weather by CustomWeather, © 2014

See weather overviewHow to use our weather pages